Location: Anaheim Mobile Home Estates
(33.8153°N, 117.9967°W)
Time: 16:31:53
(UTC+00:00)

BlueWalker 3 - Pass Details

Date: 05 August 2024
Orbit: 477 x 487 km, 53.2° (Epoch: 07 September)

Event Time Altitude Azimuth Distance (km) Brightness Sun altitude
Exits shadow 12:02:27 10° 289° (WNW) 1,673 4.2 -12.9°
Maximum altitude 12:04:49 16° 328° (NNW) 1,357 4.1 -12.5°
Drops below altitude 10° 12:07:14 10° 7° (N) 1,689 5.1 -12.1°
Sets 12:10:07 0° 30° (NNE) 2,574 6.7 -11.6°
